Showing default

EZIE-A, 63247

Orbit data source: Space-Track

EZIE-A, 63247 is an American payload satellite in SSO that was launched on Sat, 15 Mar 2025 UTC via an FALCON 9 launch vehicle from the Air Force Western Test Range (AFWTR). Payload-class satellites include a variety of spacecraft equipped with specific instruments for various scientific and technological missions. These include communications satellites like Starlink; space stations such as the ISS; scientific satellites like the Hubble; Earth observation satellites from companies like Planet Labs, Umbra, and HawkEye 360; GPS; miniature CubeSats for education and research; and military/defense satellites.

Loading next visibility...
Identifier
63247, 2025-052AP
Orbit
SSO
Country
Flag of USUS
Related business
Manufacturer
APL
Mission
Operational Civil Science
Bus & Motor
CUBESAT 6U, Unknown motor
Mass
~10 kg wet, ~10 kg dry
Launch date (UTC)
2025-03-15 (1 year ago)
Launch vehicle
FALCON 9
Launch site
Air Force Western Test Range (AFWTR)
Object type
Payload
Rocket body
Debris
Shape & HBR
Box, 0.4 m
Radar Cross Section
0.035 m², Small (<0.1 m²)

Expand to show TLE details & history
Last TLE update: 8 hours ago

TLE from 8 hours ago
0 EZIE-A
1 63247U 25052AP  26121.12736977  .00006395  00000-0  56149-3 0  9991
2 63247  97.6963  14.0439 0003845  30.0657 330.0785 14.96927819 61623
Epoch: 2026-05-01T03:03Z
TLE epoch observation values (Epoch: 2026-05-01T03:03:24.748Z)
Latitude
0.00001°
Longitude
109.1267°
Altitude
577.128 km
Speed
7.573 km/s
True Right ascension
00h 56m 10s
True Declination
0° 00' 00"
Sunlit
Object was in daylight at epoch
Visualization orbit readout
Latitude
Unknown
Longitude
Unknown
Altitude
Unknown
Speed
Unknown
Apparent Right ascension
Unknown
Apparent Declination
Unknown
Sunlit
N/A
Visualization observer readout
Local Sidereal Time
18:11:36
Azimuth
Unknown
Elevation
Unknown
Doppler factor
Unknown
Orbital elements
Apogee altitude
576.077 km
Perigee altitude
570.732 km
Semi-major axis
6,951.542 km
Eccentricity
0.00038
Inclination
97.6963°
RAAN
14.0439°
Arg. of periapsis
30.0657°
True anomaly
330.05651°
Mean anomaly
330.0785°
Eccentric anomaly
330.06751°
Mean motion
3.74474 °/min
Orbital period
96.13 mins
BSTAR
0.00056149
Loading maneuver chart data...
Computing Atmospheric mass density...
Loading historical data...
Loading historical data...
Loading historical data...
Loading historical data...
Loading historical data...
Loading historical data...
Loading historical data...

Documentation

Showing up to 5 results
|